CYGNUS OA-8 (43006 NORAD) Tracking and Keplerian Element Data

This shows tracking and keplerian element data for the satellite.

Feedback or suggestion? Click here.




ElementValue
Catalog43006
NameCYGNUS OA-8
Epoch Orbit548
Epoch Day351.78936505
Epoch Year2017
RAAN202.8079
Inclination51.635
Eccentricity0.0014913
Argument of Perigee98.0333
Mean Anonmoly262.8611
Mean Motion15.61481175
Decay Rate0.00011394
L11 43006U 17071A 17351.78936505 .00011394 00000-0 13588-3 0 9995
L22 43006 51.6350 202.8079 0014913 98.0333 262.8611 15.61481175 5489

Live tracking and technical data element details for CYGNUS OA-8 (NORAD 43006). CYGNUS OA-8 can be tracked NOW for your location showing map with azimuth and elevation plus other details from your city location.

Track the satellite on the map from your city or location and see movement details for azimuth, elevation, latitude, longitude, range, height, and movement on the map or in text.







IsCatalogInMostPopularTable: catalog: 43006, numindb: 82
Update: records affected: 1



GetName: 43006 CYGNUS OA-8

Hit Count: updated at: Thu, 19 Jul 2018 03:27:07 GMT